Location: Poughquag
(41.6090°N, 73.6820°W)
Time: 16:37:03
(UTC-05:00)

N. Korean satellite - Pass Details

Date: 25 January 2020
Orbit: 456 x 505 km, 97.2° (Epoch: 24 February)

Event Time Altitude Azimuth Distance (km) Brightness Sun altitude
Rises 05:26:36 0° 17° (NNE) 2,539 10.3 -19.9°
Reaches altitude 10° 05:28:42 10° 22° (NNE) 1,664 9.4 -19.5°
Maximum altitude 05:32:12 51° 99° (E) 621 7.4 -18.9°
Drops below altitude 10° 05:35:43 10° 177° (S) 1,677 9.4 -18.2°
Sets 05:37:50 0° 182° (S) 2,562 10.3 -17.8°
